[[{"header":{"parameterUnit":"m.s-1","parameterCategory":1,"la1":30.2991,"la2":30.254,"lo1":-89.0895,"lo2":-89.0444,"dy":0.0017,"dx":0.0017,"nx":28,"ny":28,"refTime":"2025-05-25T21:00:00:Z","depth":0,"parameterNumber":2,"parameterNumberName":"U-component_of_WINDS"},"data":[0,0,0,0,0,0,0,0,0,0,0,0,0,0,0,0,0,0,0,0,0,0,0,0,0,0,0,0,0,0,0,0,0,0,0,0,0,0,0,0,0,0,0,0,0,0,0,0,0,0,0,0,0,0,0,0,0,0,-0.3961,-0.396,0,-0.3867,-0.3866,-0.3865,-0.3821,-0.3821,-0.3822,-0.3822,-0.3725,-0.3722,-0.372,0,0,0,0,0,0,0,0,0,0,0,0,0,-0.4101,-0.4099,-0.3961,-0.396,-0.3958,-0.3868,-0.3866,-0.3865,-0.3821,-0.3821,-0.3822,-0.3822,-0.3726,-0.3722,-0.3719,0,0,0,0,0,0,0,0,0,0,0,0,0,-0.4027,-0.4098,-0.3961,-0.3926,-0.3922,-0.3868,-0.3866,-0.3865,-0.3821,-0.3821,-0.3822,-0.3822,-0.3727,-0.3723,-0.3719,-0.3693,0,0,-0.3707,-0.3705,0,0,0,0,0,0,0,0,-0.4031,-0.4022,-0.3932,-0.3928,-0.3923,-0.3856,-0.388,-0.3807,-0.3821,-0.3859,-0.3822,-0.3822,-0.3768,-0.3761,-0.3743,-0.3688,-0.3684,-0.3706,-0.3704,-0.3702,-0.3701,0,0,0,0,0,0,0,-0.4037,-0.4026,-0.3924,-0.3931,-0.3926,-0.3915,-0.3904,-0.3866,-0.3814,-0.3856,-0.3853,-0.3842,-0.3766,-0.3747,-0.3741,-0.3683,-0.3707,-0.3703,-0.3701,-0.3699,-0.3602,-0.3602,0,0,0,0,0,0,-0.4048,-0.403,-0.3927,-0.3921,-0.3979,-0.3912,-0.39,-0.3878,-0.3815,-0.3805,-0.3842,-0.3841,-0.3754,-0.3745,-0.3737,-0.3702,-0.3702,-0.3699,-0.3696,-0.3602,-0.3602,-0.3602,0,0,0,0,0,0,-0.4051,-0.4039,-0.3931,-0.3975,-0.396,-0.3909,-0.3884,-0.3876,-0.3857,-0.3804,-0.3795,-0.3833,-0.3754,-0.3743,-0.3704,-0.3698,-0.3697,-0.3693,-0.3603,-0.3602,-0.3602,-0.3633,0,0,0,0,0,0,-0.4055,-0.404,-0.403,-0.3975,-0.3958,-0.39,-0.3884,-0.3874,-0.385,-0.3847,-0.3793,-0.3784,-0.3753,-0.3711,-0.37,-0.3693,-0.369,-0.3603,-0.3602,-0.3602,-0.3632,-0.3634,-0.3635,0,0,0,0,0,-0.406,-0.4042,-0.4029,-0.4017,-0.3944,-0.3899,-0.389,-0.3855,-0.385,-0.3839,-0.3806,-0.3786,-0.3701,-0.3707,-0.3695,-0.3687,-0.3603,-0.3603,-0.3602,-0.3632,-0.3634,-0.3635,0,0,0,0,0,0,-0.4097,-0.4034,-0.4019,-0.3983,-0.3947,-0.3892,-0.3877,-0.3858,-0.3822,-0.382,-0.3778,-0.3766,-0.3732,-0.3705,-0.3713,-0.3658,-0.365,-0.3647,-0.3677,-0.3678,-0.3679,-0.3686,-0.3687,0,0,0,0,0,-0.4101,-0.407,-0.4017,-0.3989,-0.3972,-0.3928,-0.3907,-0.3884,-0.3844,-0.3829,-0.3792,-0.3755,-0.372,-0.3698,-0.3662,-0.3629,-0.3616,-0.3617,-0.3619,-0.362,-0.3618,-0.3598,-0.3598,-0.36,-0.36,-0.36,0,0,-0.4108,-0.407,-0.4053,-0.3996,-0.3965,-0.3934,-0.3915,-0.3883,-0.386,-0.3824,-0.3785,-0.3758,-0.3713,-0.3677,-0.3659,-0.3654,-0.3614,-0.3619,-0.3621,-0.3618,-0.3598,-0.3597,-0.3597,-0.36,-0.36,-0.36,0,0,-0.4106,-0.4074,-0.4048,-0.4018,-0.3972,-0.3943,-0.3937,-0.3885,-0.3865,-0.3827,-0.3799,-0.3771,-0.3711,-0.3681,-0.3657,-0.3645,-0.3625,-0.3635,-0.3642,-0.3623,-0.3623,-0.3623,-0.3618,-0.3617,-0.3633,-0.3633,-0.3633,0,-0.4121,-0.4073,-0.4037,-0.4006,-0.3982,-0.3949,-0.3923,-0.3895,-0.384,-0.3824,-0.3819,-0.3744,-0.3712,-0.3668,-0.3666,-0.3648,-0.364,-0.364,-0.3626,-0.3625,-0.3624,-0.3619,-0.3618,-0.3634,-0.3634,-0.3634,-0.3634,0,-0.4093,-0.4061,-0.4046,-0.3994,-0.3968,-0.394,-0.39,-0.3878,-0.3857,-0.3828,-0.379,-0.375,-0.3706,-0.3694,-0.3673,-0.3648,-0.3646,-0.3634,-0.3625,-0.3626,-0.3621,-0.3619,-0.3637,-0.3636,-0.3636,-0.3635,0,0,-0.411,-0.404,-0.4035,-0.4011,-0.3959,-0.3933,-0.3903,-0.3861,-0.3843,-0.3807,-0.3781,-0.3732,-0.3721,-0.3695,-0.367,-0.3654,-0.3647,-0.3644,-0.3642,-0.3645,-0.3616,-0.3625,-0.3624,-0.3634,-0.3633,-0.3633,-0.362,0,-0.41,-0.4046,-0.4013,-0.3972,-0.3942,-0.3911,-0.3885,-0.385,-0.3823,-0.3793,-0.3763,-0.373,-0.3718,-0.3702,-0.3684,-0.3651,-0.364,-0.3652,-0.3609,-0.3608,-0.362,-0.3621,-0.363,-0.362,-0.3618,-0.3617,-0.3617,0,-0.4081,-0.4046,-0.4002,-0.3953,-0.3939,-0.3917,-0.3876,-0.3848,-0.3808,-0.379,-0.3761,-0.3737,-0.3705,-0.3699,-0.3654,-0.3663,-0.3643,-0.3625,-0.3623,-0.3617,-0.3612,-0.3615,-0.3616,-0.3614,-0.3614,-0.3614,-0.3614,0,-0.4097,-0.4039,-0.4005,-0.3986,-0.3929,-0.3914,-0.3889,-0.3849,-0.3826,-0.3791,-0.3776,-0.3737,-0.3715,-0.3686,-0.3652,-0.3651,-0.361,-0.3601,-0.3593,-0.3594,-0.3585,-0.3586,-0.3583,-0.3574,-0.3574,-0.3574,-0.3574,0,-0.4089,-0.4063,-0.4012,-0.3991,-0.3961,-0.3925,-0.3896,-0.3869,-0.3834,-0.3808,-0.3779,-0.3754,-0.3711,-0.3681,-0.3654,-0.3621,-0.3611,-0.3595,-0.3588,-0.3598,-0.36,-0.3584,-0.3583,-0.3574,-0.3574,-0.3574,-0.3574,0,-0.4102,-0.4066,-0.4027,-0.3977,-0.3964,-0.3944,-0.3901,-0.3879,-0.3851,-0.3818,-0.3808,-0.3764,-0.3728,-0.3691,-0.3642,-0.3624,-0.3591,-0.3582,-0.3605,-0.36,-0.3594,-0.3595,-0.358,-0.3576,-0.3571,-0.3571,-0.3571,0,-0.4099,-0.4078,-0.4026,-0.4006,-0.3982,-0.3951,-0.3928,-0.3891,-0.3868,-0.3821,-0.3806,-0.3768,-0.3735,-0.3678,-0.3642,-0.3604,-0.3593,-0.359,-0.3587,-0.3597,-0.3592,-0.3594,-0.3592,-0.3591,-0.3592,-0.3592,-0.3592,0,-0.4097,-0.408,-0.4048,-0.401,-0.3983,-0.3951,-0.3918,-0.3903,-0.386,-0.3836,-0.3799,-0.3774,-0.3724,-0.3686,-0.3645,-0.3619,-0.3598,-0.3594,-0.359,-0.3598,-0.3612,-0.3604,-0.3607,-0.3594,-0.3594,-0.3594,-0.3593,-0.3593,-0.4101,-0.4081,-0.4041,-0.4006,-0.3978,-0.3948,-0.3926,-0.3896,-0.3864,-0.3821,-0.3801,-0.3764,-0.3725,-0.3667,-0.3642,-0.3612,-0.3607,-0.3601,-0.3599,-0.3598,-0.36,-0.3618,-0.3605,-0.3605,-0.3604,-0.3604,-0.3604,0,-0.4097,-0.407,-0.4038,-0.3993,-0.3966,-0.395,-0.3913,-0.3891,-0.3859,-0.3825,-0.3793,-0.3751,-0.3715,-0.3676,-0.3637,-0.3621,-0.361,-0.3612,-0.3612,-0.3606,-0.3608,-0.3615,-0.3621,-0.3621,-0.3621,-0.3621,-0.3621,-0.3621,-0.4091,-0.4058,-0.4037,-0.3989,-0.3962,-0.3926,-0.3906,-0.3878,-0.3851,-0.3805,-0.3775,-0.375,-0.3714,-0.3673,-0.3638,-0.3628,-0.3615,-0.3619,-0.3606,-0.3607,-0.3606,-0.3605,-0.3612,-0.3616,-0.3616,-0.3606,-0.3606,-0.3606]},{"header":{"parameterUnit":"m.s-1","parameterCategory":1,"la1":30.2991,"la2":30.254,"lo1":-89.0895,"lo2":-89.0444,"dy":0.0017,"dx":0.0017,"nx":28,"ny":28,"refTime":"2025-05-25T21:00:00:Z","depth":0,"parameterNumber":3,"parameterNumberName":"V-component_of_WINDS"},"data":[0,0,0,0,0,0,0,0,0,0,0,0,0,0,0,0,0,0,0,0,0,0,0,0,0,0,0,0,0,0,0,0,0,0,0,0,0,0,0,0,0,0,0,0,0,0,0,0,0,0,0,0,0,0,0,0,0,0,4.6521,4.6521,0,4.6576,4.6577,4.6577,4.6565,4.6564,4.6563,4.6562,4.6613,4.6616,4.6618,0,0,0,0,0,0,0,0,0,0,0,0,0,4.6399,4.6402,4.6521,4.6521,4.6522,4.6576,4.6577,4.6577,4.6565,4.6564,4.6562,4.6561,4.6613,4.6615,4.6618,0,0,0,0,0,0,0,0,0,0,0,0,0,4.6453,4.6402,4.652,4.6522,4.6523,4.6576,4.6577,4.6578,4.6565,4.6564,4.6562,4.6561,4.6612,4.6615,4.6619,4.6671,0,0,4.6629,4.6631,0,0,0,0,0,0,0,0,4.645,4.6457,4.6521,4.6522,4.6523,4.6562,4.6553,4.6609,4.6566,4.6549,4.6562,4.656,4.6597,4.6602,4.6616,4.6674,4.6676,4.663,4.6632,4.6633,4.6634,0,0,0,0,0,0,0,4.6446,4.6455,4.6542,4.6522,4.6523,4.6519,4.6525,4.6564,4.6581,4.655,4.655,4.6557,4.6597,4.6612,4.6617,4.6677,4.663,4.6633,4.6635,4.6636,4.6782,4.6784,0,0,0,0,0,0,4.6442,4.6452,4.6541,4.6544,4.6482,4.6523,4.6529,4.6551,4.6581,4.6584,4.6558,4.6556,4.6607,4.6613,4.6618,4.6683,4.6633,4.6637,4.6639,4.678,4.6782,4.6784,0,0,0,0,0,0,4.644,4.6451,4.6538,4.6498,4.6509,4.6526,4.6551,4.6553,4.6568,4.6586,4.6589,4.657,4.6606,4.6613,4.6659,4.6684,4.6638,4.6641,4.6778,4.6781,4.6783,4.6812,0,0,0,0,0,0,4.6437,4.645,4.6471,4.6499,4.6511,4.6579,4.6553,4.6555,4.6574,4.6572,4.6598,4.6601,4.6605,4.6654,4.6662,4.6688,4.6644,4.6776,4.6779,4.6782,4.6809,4.6815,4.6821,0,0,0,0,0,4.6432,4.6475,4.6472,4.6483,4.6538,4.6581,4.6588,4.6593,4.6577,4.6597,4.661,4.66,4.668,4.6658,4.6668,4.6696,4.6774,4.6778,4.6782,4.6806,4.6814,4.6821,0,0,0,0,0,0,4.6448,4.6479,4.6476,4.6529,4.6553,4.6579,4.6605,4.6601,4.6628,4.6625,4.6629,4.6635,4.6681,4.6693,4.6668,4.6749,4.6725,4.6731,4.674,4.6747,4.6753,4.6749,4.6647,0,0,0,0,0,4.6458,4.6492,4.6516,4.6561,4.6573,4.6587,4.6606,4.6608,4.6632,4.6641,4.6657,4.6679,4.6709,4.6728,4.6757,4.681,4.6816,4.6834,4.684,4.6845,4.685,4.688,4.6888,4.6797,4.6797,4.6797,0,0,4.6478,4.6499,4.652,4.6565,4.6583,4.6617,4.6596,4.6632,4.6656,4.6646,4.6691,4.6703,4.6728,4.6778,4.68,4.6789,4.6876,4.685,4.6853,4.6856,4.6885,4.6893,4.6901,4.68,4.6799,4.6799,0,0,4.6533,4.6553,4.6593,4.6612,4.6641,4.6651,4.666,4.6687,4.6696,4.6741,4.6734,4.6763,4.6814,4.6833,4.6849,4.6912,4.6905,4.6921,4.6952,4.6981,4.6988,4.6995,4.7018,4.7026,4.6926,4.6926,4.6926,0,4.6554,4.6607,4.6613,4.6651,4.6671,4.6665,4.6706,4.6723,4.6759,4.6773,4.676,4.6826,4.6842,4.6896,4.6912,4.6925,4.6936,4.6918,4.6987,4.6994,4.7,4.7022,4.703,4.6928,4.6928,4.6928,4.6927,0,4.6632,4.6668,4.6696,4.6734,4.6757,4.6796,4.6807,4.6829,4.683,4.684,4.6886,4.6906,4.6939,4.6952,4.6951,4.7006,4.6999,4.6986,4.6962,4.701,4.7031,4.7039,4.6931,4.693,4.6929,4.6929,0,0,4.6697,4.674,4.675,4.6768,4.68,4.6827,4.6865,4.69,4.6919,4.6944,4.6976,4.702,4.701,4.7028,4.703,4.7055,4.7105,4.704,4.704,4.7052,4.7167,4.7177,4.7186,4.71,4.7102,4.7103,4.7165,0,4.6755,4.6825,4.6833,4.6894,4.6928,4.6923,4.6957,4.6979,4.699,4.7019,4.703,4.7062,4.7045,4.7056,4.7081,4.7094,4.7128,4.7089,4.7129,4.7131,4.7124,4.7197,4.7207,4.7265,4.7173,4.7175,4.7176,0,4.6833,4.6863,4.6928,4.6957,4.6972,4.7002,4.7034,4.7062,4.7088,4.7093,4.7115,4.7114,4.7152,4.7127,4.718,4.7153,4.717,4.7178,4.7181,4.7185,4.7156,4.7204,4.7283,4.7292,4.7188,4.7187,4.7187,0,4.6875,4.6931,4.6979,4.6993,4.7028,4.7049,4.7064,4.7088,4.7109,4.7137,4.715,4.7181,4.7198,4.7222,4.7229,4.721,4.7282,4.7257,4.7287,4.7287,4.7303,4.7302,4.7387,4.7313,4.7313,4.7313,4.7312,0,4.694,4.698,4.6998,4.7027,4.7072,4.708,4.7124,4.7137,4.7159,4.719,4.7187,4.7215,4.7223,4.7252,4.7258,4.7301,4.7308,4.7314,4.7315,4.7315,4.7314,4.7326,4.7322,4.7315,4.7314,4.7314,4.7314,0,4.6995,4.7009,4.706,4.7089,4.7097,4.7129,4.7153,4.7181,4.7191,4.723,4.724,4.7256,4.7291,4.73,4.7341,4.7345,4.7396,4.7393,4.7388,4.7388,4.7419,4.7416,4.7515,4.7528,4.7445,4.7445,4.7446,0,4.7035,4.7067,4.71,4.7122,4.7138,4.7172,4.7194,4.7203,4.7225,4.7257,4.7281,4.7315,4.7344,4.7399,4.7414,4.7445,4.7443,4.7476,4.7448,4.7447,4.7445,4.7443,4.7446,4.7481,4.7482,4.7483,4.7483,0,4.7106,4.7112,4.7145,4.718,4.7206,4.7234,4.726,4.7277,4.7289,4.7314,4.7351,4.7373,4.7416,4.7451,4.7483,4.7497,4.7492,4.7492,4.7501,4.7501,4.7498,4.7501,4.7403,4.749,4.7489,4.7488,4.7488,4.7488,4.7156,4.7184,4.7213,4.7249,4.727,4.7295,4.7323,4.7338,4.7369,4.7407,4.7409,4.7449,4.7474,4.7517,4.7533,4.7563,4.7553,4.7566,4.7569,4.7572,4.7576,4.7492,4.7569,4.7569,4.7568,4.7568,4.7568,0,4.7228,4.7246,4.728,4.7318,4.7346,4.7341,4.737,4.7394,4.743,4.7454,4.7483,4.7525,4.7559,4.7577,4.761,4.7631,4.763,4.764,4.7639,4.7642,4.7582,4.7571,4.764,4.764,4.764,4.764,4.764,4.764,4.7268,4.7316,4.7326,4.7384,4.7401,4.7442,4.7459,4.7482,4.7502,4.755,4.7579,4.7591,4.7613,4.7648,4.7679,4.7683,4.7695,4.7707,4.771,4.7653,4.7646,4.7639,4.7629,4.7709,4.7709,4.7767,4.7768,4.7768]}]]